Wind_Speed
9 9 11 11 11 11 12 11 10 9 8 9 9 9 9 9 9 8 7 7 7 7 8 9 9 9 9 8 7 7 13 12 9 7 8 7 7 8 8 6 5 3 3 4 6
9 10 11 10 9 9 11 10 10 9 8 7 8 8 8 9 9 9 10 9 8 7 7 7 8 8 8 8 9 8 11 9 8 6 6 8 8 8 2 5 5 1 1 4 9
10 10 10 8 6 5 7 9 9 7 6 6 6 6 9 11 11 11 11 11 9 8 8 7 7 7 7 9 10 8 8 8 7 5 7 8 8 4 2 7 3 4 4 6 10
11 11 9 5 3 3 3 6 6 6 6 7 7 7 5 4 5 11 10 11 11 11 10 10 9 8 9 10 10 9 8 6 5 4 5 5 9 5 4 5 2 4 8 11 16
10 8 5 3 2 2 1 3 4 6 7 7 9 11 12 9 12 10 9 9 9 10 9 8 7 7 7 9 9 9 4 3 1 3 4 7 9 6 2 2 5 9 13 16 18
8 6 4 4 3 3 3 3 4 6 8 8 9 9 10 1 9 9 9 8 8 8 7 6 4 5 6 7 7 3 2 2 3 1 5 6 8 6 5 7 10 14 17 21 25
8 6 6 5 4 5 5 4 6 10 11 10 11 9 5 8 7 7 8 7 7 5 5 4 3 3 5 8 9 7 7 10 7 0 4 6 6 6 9 10 13 17 20 20 22
8 6 5 5 5 6 6 7 11 14 14 15 13 11 6 7 5 5 5 4 4 4 5 7 6 5 5 7 12 13 7 2 3 2 7 10 9 9 12 15 17 18 19 19 20
10 8 8 8 7 9 11 12 14 13 13 13 15 14 15 13 9 7 6 5 5 7 7 8 6 4 4 8 6 3 2 1 3 4 6 7 8 11 14 17 18 21 23 24 24
12 10 10 11 11 13 14 15 17 14 13 16 12 12 14 13 12 11 9 9 7 7 7 6 7 8 6 5 5 6 3 4 6 8 9 12 12 12 14 16 18 19 19 21 22
13 11 12 13 15 17 15 14 12 15 16 20 16 15 14 13 12 9 7 7 5 6 2 9 3 10 12 10 7 4 4 4 7 8 14 13 12 12 13 15 17 19 21 22 25
12 12 12 14 17 17 17 15 18 19 21 18 15 14 13 13 10 7 6 5 6 4 4 4 12 14 13 11 9 6 4 5 6 12 17 14 11 10 12 15 18 19 21 25 26
11 12 12 13 14 17 20 21 20 18 19 15 14 9 6 11 7 7 7 7 7 3 7 9 11 14 12 9 6 2 11 13 15 18 15 12 7 11 13 13 15 16 20 23 30
10 11 12 12 16 22 21 12 7 6 6 11 9 12 9 5 10 8 7 5 6 7 5 7 10 9 11 10 10 9 18 22 18 12 6 9 4 12 15 16 17 20 23 28 35
11 10 10 10 12 14 7 0 2 1 3 4 9 9 12 8 7 8 6 6 6 9 6 5 7 6 14 14 12 13 21 21 9 5 7 12 8 7 13 15 21 22 27 32 39
11 10 8 9 10 10 7 4 1 0 3 3 6 8 7 10 9 10 9 6 7 6 8 7 7 8 15 13 10 15 22 11 6 4 2 3 13 7 10 14 19 24 30 39 46
12 10 8 8 9 7 6 2 1 2 5 3 3 5 6 7 8 6 6 7 10 1 6 3 5 8 12 15 7 16 26 6 4 3 4 5 11 9 9 13 19 28 36 44 48
13 11 9 7 7 6 4 2 2 5 3 4 3 5 6 5 6 7 6 11 13 12 5 6 3 8 13 18 13 17 20 6 4 4 8 16 5 4 11 15 22 32 41 47 47
13 12 11 10 7 5 3 3 3 4 4 4 2 3 4 6 4 4 4 9 11 13 7 9 4 6 10 15 12 9 12 8 6 11 5 2 5 8 13 15 26 36 45 43 46
14 12 12 11 8 4 2 2 4 4 3 2 1 1 4 5 5 4 7 5 9 12 11 9 3 5 11 10 10 9 11 7 9 6 7 6 8 7 12 22 33 41 40 44 50
15 14 13 12 10 6 1 1 4 4 2 0 1 2 4 5 5 2 4 4 9 13 11 11 6 7 11 6 8 9 10 6 8 4 3 4 7 13 15 30 39 38 42 48 51
18 15 14 13 10 7 3 4 3 3 1 1 2 2 4 6 5 2 4 6 7 12 10 9 5 10 12 10 7 12 14 14 4 3 8 7 12 9 27 36 38 39 45 48 50
19 16 16 15 10 8 5 3 3 3 1 2 3 4 4 5 4 4 6 9 7 11 8 10 6 8 6 6 11 14 17 18 17 8 12 3 9 22 31 42 33 42 48 51 46
21 17 17 17 13 9 7 6 5 3 3 5 4 4 4 6 5 5 7 6 10 10 8 11 8 8 8 16 20 22 22 21 16 10 7 19 26 29 39 34 39 47 52 51 47
24 20 18 17 16 11 9 6 6 3 4 5 4 4 6 5 9 6 7 10 9 7 9 11 10 12 15 21 23 21 19 21 22 14 15 22 27 33 33 34 42 49 50 46 43
26 20 18 14 16 13 11 8 6 4 5 5 6 6 6 7 9 10 10 10 7 10 12 11 9 17 24 17 19 22 24 21 17 17 20 23 31 30 28 35 44 48 45 43 45
27 22 16 16 14 14 12 9 7 5 6 6 5 6 7 10 10 10 11 11 11 12 11 12 13 17 9 18 22 14 8 13 14 18 22 27 30 29 33 40 47 45 42 45 46
Wind_Direction
127 122 111 110 105 89 73 69 70 74 79 83 98 98 87 86 83 85 94 94 96 102 103 100 101 112 135 155 162 148 118 117 99 71 48 19 349 336 2 353 323 283 230 268 279
134 127 124 121 99 78 63 59 61 62 71 87 99 103 95 99 87 83 92 93 97 100 107 113 114 117 124 135 136 136 122 99 84 60 28 13 356 341 357 333 325 352 289 293 295
127 129 127 122 107 87 66 51 56 61 75 93 102 116 104 94 88 90 96 95 93 94 93 94 101 113 132 134 135 122 103 103 90 47 25 32 3 347 208 267 178 185 231 270 285
129 129 130 126 115 107 69 43 54 71 88 93 90 90 129 119 94 90 92 99 100 101 97 96 102 109 115 120 120 105 98 118 87 16 1 339 358 298 254 283 271 303 300 298 299
132 131 132 133 136 129 105 48 59 77 83 88 94 94 92 92 104 98 95 96 105 103 101 106 109 107 109 106 110 105 79 98 40 314 316 341 344 350 303 301 295 297 301 304 304
132 134 141 132 138 150 130 96 83 80 81 88 95 98 104 117 103 100 96 92 88 91 96 103 113 99 95 90 90 92 151 108 85 355 341 322 336 320 286 283 287 292 296 300 306
132 128 126 126 143 139 122 111 96 93 92 91 92 88 82 118 114 102 96 91 83 71 58 55 62 58 109 104 98 104 131 123 115 142 302 300 301 298 277 276 282 287 294 296 299
126 126 134 136 141 127 124 113 108 105 96 87 85 73 82 83 96 99 97 81 65 51 56 74 65 74 99 127 125 139 134 178 113 271 281 289 286 270 276 276 277 281 289 296 300
115 121 118 113 118 120 118 115 118 103 107 91 88 89 70 59 72 76 71 66 65 67 81 68 55 84 110 115 137 183 156 71 245 274 292 288 261 257 259 269 276 284 289 295 298
111 107 102 105 111 119 119 115 108 109 105 94 89 83 81 73 70 72 71 73 83 83 80 49 61 63 93 137 66 24 39 338 301 297 278 285 270 243 259 270 278 288 295 301 305
111 105 105 108 111 116 117 113 106 104 99 95 87 80 80 71 59 67 67 55 85 106 45 56 82 81 59 50 36 14 345 333 304 297 309 297 268 247 257 269 281 289 295 305 315
113 105 106 113 118 115 112 107 108 106 97 85 79 74 68 55 44 67 57 79 86 89 51 67 64 51 38 27 11 67 39 328 307 287 305 267 248 245 261 277 288 297 305 312 317
114 107 108 121 123 123 117 110 109 98 85 77 68 71 66 63 60 71 71 85 90 60 69 59 61 42 26 16 33 2 348 327 309 293 301 261 226 249 267 283 294 302 316 325 332
127 114 109 121 138 129 124 125 108 90 82 54 43 38 45 92 63 75 66 81 48 45 53 43 46 34 17 18 19 354 344 329 314 282 277 233 241 240 259 268 284 300 315 326 331
140 125 115 121 150 162 171 107 184 296 50 36 50 57 50 65 83 61 58 63 30 52 49 63 43 33 16 10 7 353 345 325 323 286 262 246 262 239 251 271 286 305 320 334 338
151 139 127 128 144 164 172 179 187 153 77 80 69 58 58 60 79 65 44 29 17 40 54 72 41 24 13 5 356 351 349 315 312 310 233 222 227 247 264 295 306 322 336 338 334
163 152 151 138 144 145 145 163 353 71 145 113 93 77 56 65 71 87 48 42 44 79 38 50 25 7 1 8 353 353 11 346 1 335 238 225 294 251 277 296 315 332 334 334 338
171 167 167 155 146 140 129 60 61 129 124 128 107 57 42 44 54 48 43 38 35 28 42 14 358 1 351 360 357 8 25 65 298 285 283 283 239 273 280 301 325 333 335 335 337
176 176 173 168 160 144 111 45 102 141 149 136 88 30 24 24 36 43 36 34 25 24 25 355 332 341 343 347 1 357 8 6 288 268 305 303 275 295 286 319 329 332 331 332 333
181 179 178 176 172 167 103 46 136 132 144 140 23 4 11 12 6 20 21 3 9 8 13 357 312 327 333 335 346 352 354 341 348 339 312 291 289 253 309 323 330 330 331 331 335
185 181 183 183 183 187 185 174 152 149 147 293 343 339 349 356 349 357 9 350 354 358 359 353 333 324 325 324 330 339 331 335 325 244 245 303 302 315 327 330 332 331 330 333 333
186 186 188 187 182 198 200 167 155 164 168 320 314 318 331 340 335 313 348 342 341 348 349 347 321 321 315 318 318 321 318 317 340 275 242 259 290 316 333 332 326 328 332 333 332
189 191 193 194 192 200 201 195 186 183 236 301 299 299 320 326 322 303 323 332 331 339 340 344 326 322 311 323 320 311 309 311 316 281 243 218 293 312 321 320 322 328 331 333 334
191 194 197 201 203 210 226 216 207 201 267 289 289 293 298 308 308 302 312 325 325 327 328 331 317 301 281 295 299 302 304 306 299 279 266 284 298 317 319 324 330 331 333 334 334
197 200 200 209 208 211 211 213 214 230 271 286 284 273 287 308 313 309 319 320 322 324 323 326 312 307 306 302 301 302 301 304 302 276 291 303 308 324 326 326 330 331 333 334 335
201 205 205 209 209 214 216 217 230 260 280 279 276 275 280 303 309 305 316 316 319 323 322 322 305 317 314 308 305 301 298 303 290 288 303 306 315 324 329 325 330 334 335 336 339
206 210 209 215 214 214 221 224 237 264 273 273 266 269 288 306 307 307 311 310 312 317 316 315 319 321 292 310 311 297 324 310 287 305 313 314 322 331 328 332 333 336 337 339 340
Height
3153 3154 3154 3155 3156 3156 3155 3155 3155 3154 3155 3155 3155 3155 3156 3156 3156 3156 3156 3157 3157 3157 3158 3158 3159 3160 3161 3162 3163 3165 3167 3169 3170 3172 3173 3172 3171 3170 3169 3171 3170 3170 3169 3168 3166
3154 3154 3155 3157 3157 3157 3157 3157 3156 3156 3156 3156 3156 3157 3157 3157 3157 3157 3158 3157 3158 3158 3159 3160 3160 3161 3162 3163 3165 3166 3168 3170 3171 3172 3172 3172 3171 3170 3170 3168 3167 3167 3166 3164 3163
3154 3155 3156 3158 3158 3159 3158 3158 3158 3158 3157 3157 3158 3158 3159 3159 3160 3159 3159 3159 3160 3160 3161 3161 3161 3162 3163 3165 3166 3167 3169 3171 3172 3173 3173 3172 3171 3169 3168 3166 3164 3164 3163 3164 3163
3155 3156 3158 3159 3159 3159 3159 3159 3160 3159 3159 3159 3159 3160 3160 3161 3163 3162 3162 3162 3162 3162 3162 3162 3163 3164 3164 3165 3167 3169 3170 3171 3173 3173 3173 3171 3169 3168 3167 3166 3166 3167 3166 3164 3162
3156 3157 3159 3160 3160 3160 3160 3160 3161 3160 3160 3160 3161 3161 3162 3162 3163 3163 3164 3164 3164 3164 3164 3164 3165 3165 3166 3167 3169 3170 3170 3172 3172 3172 3172 3172 3171 3169 3167 3166 3166 3165 3164 3162 3160
3157 3158 3160 3160 3160 3161 3161 3161 3161 3161 3162 3162 3162 3162 3163 3165 3164 3164 3165 3165 3166 3166 3166 3166 3167 3167 3168 3169 3171 3170 3169 3172 3172 3172 3172 3171 3169 3168 3167 3167 3166 3165 3163 3162 3159
3158 3159 3160 3160 3161 3162 3162 3162 3163 3163 3163 3164 3164 3164 3164 3165 3165 3166 3167 3167 3167 3168 3168 3168 3168 3169 3169 3170 3171 3171 3170 3171 3172 3172 3171 3170 3169 3167 3165 3165 3163 3161 3158 3155 3152
3159 3160 3161 3161 3162 3162 3163 3164 3165 3165 3165 3165 3165 3165 3167 3167 3168 3169 3169 3169 3169 3169 3169 3169 3169 3169 3170 3171 3173 3174 3173 3173 3173 3171 3170 3170 3168 3164 3163 3160 3158 3156 3155 3153 3149
3160 3161 3162 3161 3162 3163 3164 3165 3166 3166 3167 3168 3168 3169 3170 3170 3171 3171 3171 3171 3171 3171 3171 3171 3171 3170 3171 3172 3173 3174 3174 3173 3173 3172 3170 3169 3164 3161 3159 3157 3156 3155 3153 3152 3149
3162 3163 3163 3163 3164 3165 3166 3167 3167 3168 3169 3170 3172 3174 3174 3174 3173 3172 3173 3172 3172 3173 3174 3173 3172 3171 3171 3171 3173 3173 3173 3171 3171 3170 3167 3165 3163 3160 3159 3157 3155 3153 3150 3148 3144
3164 3165 3165 3165 3166 3167 3168 3169 3173 3173 3173 3173 3175 3174 3175 3176 3175 3175 3174 3174 3174 3174 3175 3173 3174 3172 3172 3172 3172 3170 3171 3170 3168 3166 3163 3161 3160 3159 3157 3155 3153 3151 3148 3145 3142
3166 3167 3167 3167 3168 3170 3171 3172 3173 3176 3175 3176 3177 3177 3177 3176 3178 3177 3177 3177 3176 3176 3175 3176 3173 3173 3173 3172 3171 3169 3169 3167 3166 3164 3162 3157 3157 3156 3155 3152 3149 3146 3143 3141 3138
3167 3168 3169 3170 3171 3172 3174 3175 3176 3177 3177 3179 3179 3179 3179 3180 3179 3178 3179 3178 3177 3176 3175 3175 3176 3174 3174 3173 3172 3170 3168 3166 3164 3159 3157 3156 3156 3154 3152 3151 3148 3145 3142 3139 3133
3169 3169 3170 3172 3175 3175 3176 3178 3179 3179 3180 3183 3181 3180 3180 3179 3180 3179 3179 3180 3178 3176 3175 3176 3175 3176 3175 3173 3172 3169 3167 3163 3159 3157 3157 3156 3155 3151 3148 3146 3145 3142 3139 3134 3130
3170 3171 3172 3174 3176 3177 3179 3179 3180 3181 3182 3186 3183 3183 3181 3182 3182 3182 3181 3179 3179 3177 3178 3178 3177 3175 3173 3171 3169 3169 3164 3159 3156 3155 3156 3154 3154 3144 3146 3145 3142 3138 3134 3131 3127
3171 3172 3173 3175 3177 3179 3179 3180 3182 3184 3183 3185 3184 3184 3184 3182 3182 3182 3182 3181 3180 3178 3177 3176 3176 3175 3173 3171 3169 3166 3162 3156 3155 3154 3153 3151 3153 3144 3145 3143 3139 3137 3134 3129 3122
3171 3172 3175 3176 3178 3179 3180 3181 3183 3181 3186 3187 3185 3185 3184 3183 3183 3183 3182 3182 3180 3179 3178 3176 3175 3174 3173 3171 3168 3166 3160 3157 3158 3154 3150 3148 3148 3142 3141 3139 3137 3134 3130 3124 3117
3172 3173 3175 3177 3179 3180 3181 3183 3182 3184 3184 3185 3186 3185 3185 3184 3184 3183 3182 3181 3181 3179 3178 3177 3174 3174 3172 3170 3169 3166 3164 3166 3167 3160 3149 3146 3143 3141 3139 3137 3135 3132 3127 3119 3113
3172 3174 3176 3177 3180 3181 3182 3182 3182 3184 3185 3185 3186 3186 3185 3185 3185 3183 3183 3182 3181 3180 3180 3177 3175 3173 3171 3169 3169 3165 3165 3166 3163 3157 3153 3145 3143 3139 3137 3137 3134 3128 3124 3119 3112
3171 3174 3176 3178 3180 3182 3183 3183 3183 3184 3185 3186 3187 3187 3186 3185 3185 3183 3182 3183 3182 3181 3179 3178 3175 3174 3172 3170 3169 3169 3169 3167 3168 3166 3158 3144 3142 3138 3138 3135 3131 3126 3119 3113 3106
3171 3173 3175 3178 3180 3182 3183 3183 3183 3184 3186 3187 3187 3186 3186 3186 3185 3184 3183 3183 3181 3180 3178 3176 3176 3175 3171 3169 3169 3168 3166 3166 3166 3165 3162 3156 3143 3141 3138 3134 3127 3121 3116 3109 3101
3170 3173 3175 3178 3181 3182 3183 3183 3184 3185 3186 3186 3187 3186 3186 3186 3185 3184 3183 3182 3181 3179 3177 3176 3174 3171 3170 3168 3167 3166 3164 3162 3161 3160 3159 3156 3143 3140 3136 3131 3125 3119 3114 3107 3097
3168 3172 3175 3177 3180 3181 3183 3184 3184 3185 3185 3185 3185 3186 3186 3185 3185 3183 3182 3182 3180 3179 3177 3175 3173 3171 3168 3169 3165 3162 3160 3158 3157 3155 3151 3152 3142 3139 3134 3130 3125 3116 3109 3101 3092
3168 3171 3174 3176 3179 3181 3182 3183 3184 3184 3185 3184 3185 3185 3185 3184 3183 3183 3182 3181 3179 3177 3176 3174 3172 3172 3171 3167 3164 3160 3157 3156 3154 3152 3146 3143 3136 3136 3128 3122 3118 3111 3103 3094 3085
3165 3168 3171 3174 3178 3180 3181 3182 3183 3184 3184 3183 3183 3184 3184 3183 3182 3181 3180 3179 3178 3176 3175 3173 3170 3169 3167 3162 3158 3156 3153 3151 3150 3147 3145 3138 3133 3129 3123 3118 3113 3106 3097 3087 3080
3163 3167 3171 3174 3176 3178 3180 3181 3183 3183 3183 3183 3183 3182 3182 3182 3181 3180 3179 3177 3176 3174 3172 3170 3168 3165 3160 3157 3154 3151 3148 3147 3146 3143 3138 3135 3130 3125 3121 3117 3109 3100 3089 3082 3074
3161 3166 3170 3172 3175 3177 3179 3180 3181 3182 3182 3182 3182 3181 3181 3181 3180 3178 3177 3175 3174 3172 3170 3167 3165 3162 3155 3153 3150 3145 3143 3143 3142 3139 3135 3129 3127 3122 3117 3112 3103 3094 3086 3078 3070